FW2545 Weather Reports


Display with metric or nautical units.
time (UTC)temp
F
wind
direction
speed
MPH
gust
MPH
rain 1hr
in
rain 24hr
in
rain mn
in
humidity
%
barometer
mb
20260508034532 60 341 4.0 8.0 0.00 0.00 0.00 30 1017.4
20260508033030 61 329 3.0 8.0 0.00 0.00 0.00 29 1017.4
20260508030031 63 330 5.0 11.0 0.00 0.00 0.00 28 1017.1
20260508024530 64 334 5.0 12.0 0.00 0.00 0.00 27 1017.1
20260508023029 65 339 5.0 11.0 0.00 0.00 0.00 27 1017.1
20260508021529 66 348 3.0 10.0 0.00 0.00 0.00 27 1017.1
20260508014605 67 321 4.0 8.0 0.00 0.00 0.00 25 1017.1
20260508013107 69 298 6.0 14.0 0.00 0.00 0.00 25 1017.2
20260508011530 70 331 6.0 14.0 0.00 0.00 0.00 24 1017.2
20260508004530 71 324 7.0 15.0 0.00 0.00 0.00 25 1017.1
20260508003030 71 332 8.0 16.0 0.00 0.00 0.00 26 1017.0
20260508001607 71 338 8.0 17.0 0.00 0.00 0.00 27 1017.0
20260508000035 72 323 8.0 17.0 0.00 0.00 0.00 28 1017.0
20260507234531 72 311 9.0 18.0 0.00 0.00 0.00 28 1016.9
20260507233028 73 298 10.0 19.0 0.00 0.00 0.00 28 1016.8
20260507231532 74 293 9.0 18.0 0.00 0.00 0.00 29 1016.9
20260507230031 74 297 8.0 17.0 0.00 0.00 0.00 30 1017.1
20260507223104 74 313 9.0 19.0 0.00 0.00 0.00 30 1017.5
20260507221532 75 302 7.0 17.0 0.00 0.00 0.00 31 1017.7
20260507220032 75 326 7.0 15.0 0.00 0.00 0.00 31 1017.9
20260507214530 75 316 7.0 18.0 0.00 0.00 0.00 33 1018.1
20260507213031 75 323 6.0 12.0 0.00 0.00 0.00 33 1018.2
20260507211546 75 328 7.0 17.0 0.00 0.00 0.00 33 1018.3
20260507210031 75 337 6.0 14.0 0.00 0.00 0.00 33 1018.5
20260507204532 75 344 3.0 10.0 0.00 0.00 0.00 34 1018.6
20260507203032 74 342 4.0 9.0 0.00 0.00 0.00 34 1018.9
20260507201607 74 311 4.0 12.0 0.00 0.00 0.00 36 1019.0
20260507194531 74 360 4.0 11.0 0.00 0.00 0.00 39 1019.2
20260507193031 73 43 4.0 11.0 0.00 0.00 0.00 41 1019.4
20260507191530 71 343 2.0 9.0 0.00 0.00 0.00 43 1019.5
20260507190029 70 332 4.0 12.0 0.00 0.00 0.00 45 1019.6
20260507181532 63 343 3.0 11.0 0.00 0.00 0.00 56 1020.0
20260507173029 61 351 4.0 9.0 0.00 0.00 0.00 63 1020.3
20260507171533 60 1 5.0 10.0 0.00 0.00 0.00 64 1020.5
20260507170032 60 345 6.0 12.0 0.00 0.00 0.00 66 1020.5
20260507164528 59 339 5.0 10.0 0.00 0.00 0.00 69 1020.4
20260507161532 58 280 6.0 13.0 0.00 0.00 0.00 73 1020.3
20260507160032 57 284 6.0 13.0 0.00 0.00 0.00 77 1020.7
20260507154531 55 244 3.0 10.0 0.00 0.00 0.00 81 1020.9
20260507153031 53 228 3.0 6.0 0.00 0.00 0.00 84 1021.0
20260507151530 52 241 2.0 10.0 0.00 0.00 0.00 87 1021.1
20260507150038 51 244 4.0 8.0 0.00 0.00 0.00 89 1021.0
20260507144532 49 227 5.0 9.0 0.00 0.00 0.00 91 1021.0
20260507143030 46 247 3.0 7.0 0.00 0.00 0.00 92 1020.9
20260507141530 44 256 2.0 6.0 0.00 0.00 0.00 91 1020.8
20260507140031 43 202 0.0 2.0 0.00 0.00 0.00 90 1020.6
20260507134533 42 245 1.0 4.0 0.00 0.00 0.00 89 1020.5
20260507133106 43 314 1.0 4.0 0.00 0.00 0.00 89 1020.4
20260507131614 46 21 0.0 4.0 0.00 0.00 0.00 89 1020.4
20260507130031 47 22 2.0 6.0 0.00 0.00 0.00 90 1020.3
20260507124604 47 20 4.0 7.0 0.00 0.00 0.00 90 1020.4
20260507121531 45 17 3.0 8.0 0.00 0.00 0.00 88 1020.1
20260507120029 45 24 1.0 4.0 0.00 0.00 0.00 87 1020.1
20260507114534 46 318 0.0 3.0 0.00 0.00 0.00 86 1020.0
20260507111530 49 37 1.0 5.0 0.00 0.00 0.00 85 1019.8
20260507110031 49 86 3.0 6.0 0.00 0.00 0.00 84 1019.7
20260507104530 49 351 3.0 8.0 0.00 0.00 0.00 83 1019.6
20260507103145 50 31 3.0 9.0 0.00 0.00 0.00 82 1019.5
20260507100042 52 45 3.0 8.0 0.00 0.00 0.00 78 1019.6
20260507094530 54 31 3.0 6.0 0.00 0.00 0.00 75 1019.7
20260507093033 55 56 2.0 5.0 0.00 0.00 0.00 74 1019.7
20260507091529 55 307 4.0 8.0 0.00 0.00 0.00 74 1019.7
20260507090144 55 329 3.0 6.0 0.00 0.00 0.00 76 1019.7
20260507084529 54 338 3.0 10.0 0.00 0.00 0.00 79 1019.7
20260507083034 54 335 5.0 10.0 0.00 0.00 0.00 80 1019.8
20260507081533 54 344 4.0 11.0 0.00 0.00 0.00 80 1019.8
20260507080030 54 349 4.0 11.0 0.00 0.00 0.00 81 1019.9
20260507074528 53 26 2.0 8.0 0.00 0.00 0.00 82 1019.9
20260507073103 52 23 3.0 7.0 0.00 0.00 0.00 81 1019.7
20260507071528 52 269 0.0 4.0 0.00 0.00 0.00 79 1019.7
20260507064531 55 22 0.0 1.0 0.00 0.00 0.00 73 1020.0
20260507063031 56 53 2.0 5.0 0.00 0.00 0.00 70 1020.0
20260507061530 57 351 1.0 7.0 0.00 0.00 0.00 68 1020.1
20260507060031 58 340 4.0 9.0 0.00 0.00 0.00 66 1020.2
20260507054606 58 351 5.0 11.0 0.00 0.00 0.00 65 1020.3
20260507053030 58 7 4.0 9.0 0.00 0.00 0.00 62 1020.4
20260507051529 57 306 3.0 7.0 0.00 0.00 0.00 61 1020.4
20260507050028 58 261 1.0 5.0 0.00 0.00 0.00 59 1020.4
20260507044529 59 250 3.0 8.0 0.00 0.00 0.00 57 1020.3
20260507041528 61 248 7.0 14.0 0.00 0.00 0.00 53 1020.2
20260507040039 63 249 7.0 13.0 0.00 0.00 0.00 51 1020.0